カタログに戻る

OPS 4682 DEB

運用中PO
NORAD 38376·DEBRIS·🇺🇸 United States

打ち上げ Apr 3, 1965 から Vandenberg Space Force Base

Loading…

次のパス (今後24時間)

TLE

最新Source: Space-Track

元期: Sep 14, 2026, 07:32 UTC

1 38376U 65027CD  26257.31414083  .00000475  00000-0  16480-2 0  9990
2 38376  90.2494  12.7543 0027713 266.7386  93.0563 12.95876755673330

AllMySatでOPS 4682 DEBをリアルタイム追跡

Download on the App Store